Flag Weather past 2 weeks in Novorossiysk, Russia

Now
32 °F

Sunny.


Feels Like: 21 °F
Forecast: 25 / 41 °F
Wind: 17 mph from Northeast

Location: Anapa / Vitiazevo

Current Time: Nov 23, 2014 at 11:40:27 AM

Latest Report: Nov 23, 2014 at 11:00 AM


Visibility: 10 mi

Pressure: 30.27 "Hg

Humidity: 69%

Dew point: 23 °F

Location of NovorossiyskLocation

Historic Weather in Novorossiysk — Graph

°F

Novorossiysk temperature yesterday

Maximum temperature yesterday: 39 °F (at 2:30 PM)
Minimum temperature yesterday: 30 °F (at 7:30 AM)
Average temperature yesterday: 34 °F

Past Weeks' High & Low Weather Summary

 TemperatureHumidityPressure
High70 °F (Nov 9, 12:30 PM)100% (Nov 11, 8:00 AM)30.27 "Hg (Nov 11, 8:00 AM)
Low23 °F (Nov 23, 8:00 AM)33% (Nov 9, 11:00 AM)29.92 "Hg (Nov 22, 3:00 AM)
Average48 °F77%30.10 "Hg
* Reported Nov 8 10:00 AM — Nov 23 10:30 AM, Novorossiysk, Weather by CustomWeather, © 2014

Note: Actual official high and low records may vary slightly from our data, if they occured in-between our weather recording intervals... More about our weather records

Advertising

Novorossiysk weather history for previous 24 hours

 ConditionsComfort  
Time TempWeatherWind HumidityBarometerVisibility
10:30 AM
Nov 23
30 °FSunny.17 mph69%30.27 "Hg10 mi
10:00 AM28 °FSunny.17 mph69%30.27 "Hg10 mi
9:30 AM27 °FSunny.15 mph74%30.27 "Hg10 mi
9:00 AM25 °FSunny.13 mph80%30.24 "Hg10 mi
8:30 AM25 °FClear.13 mph74%30.24 "Hg10 mi
8:00 AM23 °FClear.13 mph80%30.24 "Hg10 mi
7:30 AM25 °FClear.13 mph80%30.21 "Hg10 mi
7:00 AM25 °FClear.10 mph74%30.21 "Hg10 mi
6:30 AM25 °FClear.13 mph74%30.21 "Hg10 mi
5:00 AM27 °FPassing clouds.20 mph74%30.18 "HgN/A
4:00 AM27 °FPassing clouds.15 mph80%30.15 "HgN/A
3:00 AM28 °FPassing clouds.15 mph74%30.15 "HgN/A
2:00 AM28 °FPassing clouds.17 mph74%30.12 "HgN/A
1:00 AM30 °FPassing clouds.17 mph75%30.12 "HgN/A
12:00 AM30 °FPassing clouds.24 mph80%30.12 "HgN/A
11:00 PM
Nov 22
32 °FPassing clouds.26 mph80%30.12 "HgN/A
10:00 PM32 °FPassing clouds.29 mph80%30.09 "HgN/A
9:00 PM32 °FClear.29 mph80%30.09 "Hg10 mi
8:00 PM32 °FClear.31 mph75%30.04 "Hg10 mi
7:00 PM32 °FClear.33 mph64%30.04 "Hg10 mi
6:30 PM32 °FClear.31 mph64%30.04 "Hg10 mi
6:00 PM34 °FClear.33 mph60%30.04 "Hg10 mi
5:30 PM34 °FSunny.29 mph65%30.01 "Hg10 mi
5:00 PM36 °FSunny.29 mph60%30.01 "Hg10 mi
4:30 PM36 °FSunny.39 mph60%29.98 "Hg10 mi
4:00 PM37 °FSunny.44 mph56%29.95 "Hg10 mi
3:30 PM37 °FSunny.31 mph56%29.98 "Hg10 mi
3:00 PM39 °FSunny.31 mph52%29.95 "Hg10 mi
2:30 PM39 °FSunny.29 mph52%29.98 "Hg10 mi
2:00 PM37 °FSunny.29 mph56%29.98 "Hg10 mi
1:30 PM37 °FSunny.29 mph60%29.98 "Hg10 mi
1:00 PM37 °FSunny.26 mph60%29.98 "Hg10 mi
12:30 PM36 °FSunny.29 mph65%29.98 "Hg10 mi
12:00 PM34 °FSunny.24 mph70%29.98 "Hg10 mi
11:30 AM34 °FSunny.22 mph70%29.98 "Hg10 mi
11:00 AM34 °FSunny.29 mph70%29.98 "Hg10 mi
Weather by CustomWeather, © 2014

See weather overviewHow to use our weather pages